CST,Max TemperatureF,Mean TemperatureF,Min TemperatureF,Max Dew PointF,MeanDew PointF,Min DewpointF,Max Humidity, Mean Humidity, Min Humidity, Max Sea Level PressureIn, Mean Sea Level PressureIn, Min Sea Level PressureIn, Max VisibilityMiles, Mean VisibilityMiles, Min VisibilityMiles, Max Wind SpeedMPH, Mean Wind SpeedMPH, Max Gust SpeedMPH,PrecipitationIn, CloudCover, Events, WindDirDegrees
2012-11-1,44,38,32,39,36,31,93,85,76,30.08,30.00,29.95,10,5,0,17,6,21,0.00,4,Fog,8
2012-11-2,49,41,33,32,29,27,96,73,49,30.14,30.03,29.96,10,9,1,15,7,18,0.00,2,,61
2012-11-3,53,39,24,36,31,25,92,71,50,30.26,30.20,30.14,10,10,6,9,3,13,0.00,4,,289
2012-11-4,52,44,35,41,37,33,96,75,54,30.19,30.10,30.03,10,8,5,17,6,21,0.04,6,Rain,343
2012-11-5,41,39,36,37,33,32,92,84,76,30.23,30.15,29.98,10,8,4,22,11,28,T,8,,331
2012-11-6,56,46,36,36,29,25,89,61,32,30.12,30.05,29.95,10,10,10,33,16,41,T,0,,297
2012-11-7,56,40,24,30,27,21,88,62,35,30.19,30.09,29.95,10,10,10,17,8,24,0.00,0,,183
2012-11-8,63,50,36,32,30,28,70,50,30,29.92,29.89,29.85,10,10,10,21,9,25,0.00,0,,163
2012-11-9,56,45,33,42,36,32,96,78,59,29.91,29.81,29.61,10,7,2,14,6,16,0.00,4,,24
2012-11-10,64,47,29,45,36,23,100,74,48,29.78,29.57,29.45,10,5,0,30,9,37,0.39,6,Fog-Rain-Thunderstorm,294
2012-11-11,30,26,21,23,13,9,85,64,42,30.20,30.00,29.78,10,10,8,31,17,38,T,4,Snow,310
2012-11-12,38,29,20,16,13,10,74,53,32,30.38,30.30,30.20,10,10,10,24,12,35,0.00,0,,276
2012-11-13,53,36,18,27,19,13,80,54,28,30.38,30.30,30.21,10,10,10,16,5,25,0.00,2,,197
2012-11-14,55,39,23,29,25,19,88,62,35,30.31,30.24,30.16,10,10,10,15,5,21,0.00,0,,195
2012-11-15,55,41,27,31,29,24,78,58,38,30.48,30.34,30.16,10,10,10,15,7,20,0.00,1,,324
2012-11-16,55,36,17,32,27,15,100,71,41,30.49,30.37,30.25,10,9,2,20,9,26,0.00,0,,165
2012-11-17,62,51,39,36,33,30,76,56,36,30.24,30.14,30.06,10,10,10,28,15,35,0.00,0,,172
2012-11-18,60,49,37,37,33,29,70,53,35,30.08,30.03,29.97,10,10,10,23,11,28,0.00,0,,163
2012-11-19,60,46,32,37,33,28,85,62,39,30.18,30.07,29.96,10,10,10,21,9,24,0.00,0,,293
2012-11-20,64,45,26,35,30,24,85,56,27,30.24,30.15,30.05,10,10,10,21,8,28,0.00,0,,191
2012-11-21,72,57,41,40,37,34,70,49,27,30.04,29.89,29.73,10,10,10,32,17,40,0.00,0,,193
2012-11-22,56,43,30,39,31,16,76,59,42,30.32,29.97,29.69,10,10,9,35,18,44,T,1,,293
2012-11-23,34,24,14,13,10,4,67,48,28,30.56,30.47,30.35,10,10,10,37,14,46,0.00,1,,320
2012-11-24,45,30,14,23,17,10,80,58,36,30.39,30.04,29.88,10,10,10,23,8,29,0.00,0,,179
2012-11-25,43,38,32,28,24,22,75,60,45,30.22,30.05,29.89,10,10,10,14,8,17,0.00,7,,348
2012-11-26,32,22,11,23,14,6,88,64,39,30.50,30.40,30.22,10,8,2,20,10,23,T,5,Snow,330
2012-11-27,41,27,12,26,20,11,88,71,54,30.45,30.30,30.18,10,10,9,23,8,28,0.00,0,,237
2012-11-28,47,30,12,26,21,9,92,65,37,30.40,30.24,30.06,10,10,5,20,7,26,0.00,0,,189
2012-11-29,56,36,16,29,25,18,92,64,35,30.06,29.99,29.90,10,10,7,12,3,15,0.00,0,,213
2012-11-30,48,35,22,30,25,20,88,69,49,30.14,30.05,29.96,10,7,4,16,6,21,0.00,0,,245